Location: Arapaho Elementary School
(32.9607°N, 96.7625°W)
Time: 11:08:29
(UTC+00:00)

Cosmos 2228 Rocket - Pass Details

Date: 09 July 2022
Orbit: 618 x 651 km, 82.5° (Epoch: 10 August)

Event Time Altitude Azimuth Distance (km) Brightness Sun altitude
Rises 09:26:25 0° 353° (N) 2,927 7.1 -20.9°
Reaches altitude 10° 09:28:39 10° 353° (N) 2,021 6.2 -20.5°
Maximum altitude 09:33:08 86° 266° (W) 644 3.0 -19.9°
Enters shadow 09:35:10 33° 177° (S) 1,083 3.9 -19.6°
